Sabillasville, MD

2:23 AM EST on February 26, 2017 (GMT -0500)
Thurmont

Weather History for KRSP - September, 2013

Change the Weather History Date:

Friday, September 6, 2013

  Actual Average (KHGR) Record (KHGR)
Temperature  
Mean Temperature 60 °F -  
Max Temperature 70 °F 77 °F 95 °F (1998)
Min Temperature 51 °F 58 °F 45 °F (2000)
Degree Days  
Heating Degree Days 5    
Growing Degree Days 10 (Base 50)    
Moisture  
Dew Point 41 °F    
Average Humidity 52    
Maximum Humidity 71    
Minimum Humidity 34    
Precipitation  
Precipitation 0.00 in - - ()
Sea Level Pressure  
Sea Level Pressure 30.23 in    
Wind  
Wind Speed 5 mph (ESE)    
Max Wind Speed 9 mph    
Max Gust Speed -    
Visibility 10 miles    
Events      
Averages and records for this station are not official NWS values.
T = Trace of Precipitation, MM = Missing Value Source: NWS Daily Summary

Daily Weather History Graph

Daily Weather History Graph

Search for Another Location

Airport or City:

Trip Planner

Search our weather history database for the weather conditions in past years. The results will help you decide how hot, cold, wet, or windy it might be!

Date:

Astronomy

Sep. 06, 2013 Rise Set
Actual Time 6:42 AM EDT 7:32 PM EDT
Civil Twilight 6:15 AM EDT 7:59 PM EDT
Nautical Twilight 5:43 AM EDT 8:32 PM EDT
Astronomical Twilight 5:09 AM EDT 9:05 PM EDT
Moon 7:52 AM EDT (9/6) 7:56 PM EDT (9/6)
Length of Visible Light 13h 44m
Length of Day
12h 49m
New Moon, 1% of the Moon is Illuminated
Sep 6
New Moon
Sep 12
First Quarter
Sep 19
Full
Sep 26
Last Quarter
Oct 4
New

Hourly Weather History & Observations

Time (EDT) Temp. Dew Point Humidity Pressure Visibility Wind Dir Wind Speed Gust Speed Precip Events Conditions
12:54 AM 59.0 °F 42.1 °F 53% 30.21 in 10.0 mi Variable 5.8 mph - N/A   Clear
1:54 AM 55.9 °F 45.0 °F 67% 30.22 in 10.0 mi ENE 9.2 mph - N/A   Clear
2:54 AM 55.0 °F 44.1 °F 67% 30.22 in 10.0 mi Variable 5.8 mph - N/A   Clear
3:54 AM 54.0 °F 44.1 °F 69% 30.23 in 10.0 mi East 4.6 mph - N/A   Clear
4:54 AM 52.0 °F 43.0 °F 71% 30.23 in 10.0 mi Variable 6.9 mph - N/A   Clear
5:54 AM 51.1 °F 41.0 °F 68% 30.24 in 10.0 mi Variable 6.9 mph - N/A   Clear
7:54 AM 51.1 °F 39.0 °F 63% 30.29 in 10.0 mi Variable 5.8 mph - N/A   Clear
8:54 AM 54.0 °F 39.0 °F 57% 30.29 in 10.0 mi Variable 3.5 mph - N/A   Clear
9:54 AM 55.9 °F 36.0 °F 47% 30.30 in 10.0 mi East 5.8 mph - N/A   Clear
11:54 AM 61.0 °F 39.9 °F 46% 30.29 in 10.0 mi Calm Calm - N/A   Clear
1:54 PM 66.9 °F 41.0 °F 39% 30.25 in 10.0 mi Calm Calm - N/A   Clear
2:54 PM 69.1 °F 41.0 °F 36% 30.23 in 10.0 mi Variable 3.5 mph - N/A   Clear
3:54 PM 69.1 °F 41.0 °F 36% 30.21 in 10.0 mi Variable 5.8 mph - N/A   Clear
4:54 PM 66.9 °F 37.9 °F 34% 30.21 in 10.0 mi Calm Calm - N/A   Clear
5:54 PM 66.9 °F 39.9 °F 37% 30.20 in 10.0 mi Calm Calm - N/A   Clear
6:54 PM 61.0 °F 45.0 °F 56% 30.20 in 10.0 mi Calm Calm - N/A   Clear
7:54 PM 59.0 °F 41.0 °F 51% 30.21 in 10.0 mi Calm Calm - N/A   Clear
8:54 PM 59.0 °F 42.1 °F 53% 30.22 in 10.0 mi ESE 5.8 mph - N/A   Clear
9:54 PM 57.9 °F 37.9 °F 47% 30.21 in 10.0 mi SE 5.8 mph - N/A   Clear
10:54 PM 57.9 °F 36.0 °F 44% 30.21 in 10.0 mi SE 5.8 mph - N/A   Clear
11:54 PM 57.0 °F 37.9 °F 49% 30.20 in 10.0 mi South 6.9 mph - N/A   Clear